Powrót do katalogu

SCOUT X-4 DEB

AktywnyLEO
NORAD 3750·DEBRIS·🇺🇸 United States

Wystrzelony Dec 19, 1963 z Vandenberg Space Force Base

Loading…

Następne Przeloty (najbliższe 24 godziny)

TLE

ŚwieżeSource: Space-Track

Epoka: Sep 14, 2026, 08:11 UTC

1 03750U 63053J   26257.34116419  .00027563  00000-0  20668-2 0  9990
2 03750  78.5540 260.9363 0133545  99.9593 261.6717 14.95607175821860

Śledź SCOUT X-4 DEB w czasie rzeczywistym z AllMySat

Download on the App Store